Tracking 30743 objects as of 21-Jun-2025
HD Live streaming from Space Station
objects crossing your sky now

STARLINK-6095

Track STARLINK-6095 now!
10-day predictions
STARLINK-6095 is classified as:


NORAD ID: 56101
Int'l Code: 2023-046J
Perigee: 565.4 km
Apogee: 567.0 km
Inclination: 43.0 °
Period: 95.8 minutes
Semi major axis: 6937 km
RCS: Unknown
Launch date: March 29, 2023
Source: United States (US)
Launch site: AIR FORCE EASTERN TEST RANGE (AFETR)
Your satellite tracking list
Your tracking list is empty




NASA's NSSDC Master Catalog

Two Line Element Set (TLE):
1 56101U 23046J   25171.64997799  .00000739  00000-0  69735-4 0  9997
2 56101  43.0032 142.8650 0001171 271.5553  88.5155 15.02536439122646
Source of the keplerian elements: AFSPC